N2OZI Weather Reports


time (UTC)temp
F
wind
direction
speed
knots
gust
knots
rain 1hr
in
rain 24hr
in
rain mn
in
humidity
%
barometer
mb
20260504001820 56 230 4.3 13.0 0.00 0.00 0.00 51 1010.4
20260504001321 56 253 3.5 12.2 0.00 0.00 0.00 51 1010.4
20260504000858 56 239 5.2 12.2 0.00 0.00 0.00 50 1010.4
20260504000320 56 224 4.3 9.6 0.00 0.00 0.00 50 1010.4
20260503235815 56 238 4.3 8.7 0.00 0.00 0.00 50 1010.4
20260503235339 56 234 4.3 7.8 0.00 0.00 0.00 49 1010.4
20260503234832 56 171 3.5 14.8 0.00 0.00 0.00 49 1010.4
20260503234359 56 225 5.2 9.6 0.00 0.00 0.00 49 1010.5
20260503233852 56 225 5.2 12.2 0.00 0.00 0.00 48 1010.5
20260503233335 56 238 6.1 12.2 0.00 0.00 0.00 49 1010.7
20260503232829 56 266 6.1 13.9 0.00 0.00 0.00 50 1010.6
20260503232313 56 243 7.0 13.0 0.00 0.00 0.00 49 1010.6
20260503231858 56 232 6.1 13.9 0.00 0.00 0.00 49 1010.7
20260503231319 56 242 6.1 13.9 0.00 0.00 0.00 49 1010.7
20260503230853 56 222 7.0 13.9 0.00 0.00 0.00 49 1010.7
20260503230315 56 244 6.1 12.2 0.00 0.00 0.00 48 1010.7
20260503225835 56 221 5.2 9.6 0.00 0.00 0.00 49 1010.7
20260503225401 56 240 4.3 15.6 0.00 0.00 0.00 48 1010.7
20260503224831 56 265 7.8 15.6 0.00 0.00 0.00 47 1010.7
20260503224334 56 251 7.8 13.9 0.00 0.00 0.00 47 1010.7
20260503223847 56 252 5.2 12.2 0.00 0.00 0.00 48 1010.8
20260503223329 56 240 5.2 14.8 0.00 0.00 0.00 48 1010.7
20260503222837 56 217 5.2 14.8 0.00 0.00 0.00 48 1010.7
20260503222339 56 223 7.0 12.2 0.00 0.00 0.00 48 1010.7
20260503221837 56 238 5.2 20.0 0.00 0.00 0.00 48 1010.7
20260503221319 56 247 10.4 20.0 0.00 0.00 0.00 47 1010.8
20260503220813 56 240 7.0 20.0 0.00 0.00 0.00 47 1010.8
20260503220338 56 238 8.7 20.0 0.00 0.00 0.00 47 1010.7
20260503215831 56 255 7.8 17.4 0.00 0.00 0.00 48 1010.8
20260503215313 56 273 7.8 20.0 0.00 0.00 0.00 49 1010.7
20260503214833 56 273 10.4 21.7 0.00 0.00 0.00 48 1010.7
20260503214317 56 260 8.7 21.7 0.00 0.00 0.00 46 1010.7
20260503213831 56 241 9.6 18.2 0.00 0.00 0.00 46 1010.7
20260503213336 56 236 9.6 25.2 0.00 0.00 0.00 44 1010.7
20260503212830 57 252 10.4 25.2 0.00 0.00 0.00 43 1010.7
20260503212315 57 269 8.7 20.0 0.00 0.00 0.00 43 1010.7
20260503211814 57 272 12.2 23.5 0.00 0.00 0.00 43 1010.7
20260503211317 57 247 12.2 23.5 0.00 0.00 0.00 43 1010.7
20260503210814 57 259 10.4 22.6 0.00 0.00 0.00 44 1010.8
20260503210337 57 266 9.6 21.7 0.00 0.00 0.00 42 1010.8
20260503205828 57 266 11.3 21.7 0.00 0.00 0.00 41 1010.8
20260503205331 57 279 10.4 22.6 0.00 0.00 0.00 41 1010.8
20260503204825 57 277 11.3 26.1 0.00 0.00 0.00 41 1010.9
20260503204324 57 240 10.4 20.9 0.00 0.00 0.00 42 1010.8
20260503203844 57 271 11.3 23.5 0.00 0.00 0.00 41 1011.0
20260503203327 58 244 12.2 24.3 0.00 0.00 0.00 41 1010.9
20260503202818 58 234 7.8 24.3 0.00 0.00 0.00 43 1010.8
20260503202338 58 235 12.2 22.6 0.00 0.00 0.00 41 1011.0
20260503201849 58 287 9.6 19.1 0.00 0.00 0.00 45 1010.9
20260503201352 58 260 11.3 19.1 0.00 0.00 0.00 45 1010.9
20260503200819 58 252 8.7 26.1 0.00 0.00 0.00 45 1011.1
20260503200322 57 257 11.3 26.1 0.00 0.00 0.00 45 1011.1
20260503195815 57 245 13.0 26.1 0.00 0.00 0.00 44 1011.2
20260503195337 57 252 12.2 22.6 0.00 0.00 0.00 46 1011.2
20260503194855 57 255 13.0 22.6 0.00 0.00 0.00 44 1011.3
20260503194336 57 250 12.2 22.6 0.00 0.00 0.00 46 1011.3
20260503193832 56 273 13.0 25.2 0.00 0.00 0.00 45 1011.5
20260503193335 56 267 11.3 25.2 0.00 0.00 0.00 45 1011.5
20260503192828 57 217 11.3 24.3 0.00 0.00 0.00 46 1011.6
20260503192332 57 247 10.4 24.3 0.00 0.00 0.00 47 1011.6
20260503191819 57 257 11.3 22.6 0.00 0.00 0.00 47 1011.7
20260503191322 56 240 12.2 30.4 0.00 0.00 0.00 46 1011.7
20260503190822 56 279 13.0 30.4 0.00 0.00 0.00 46 1011.8
20260503190325 56 271 10.4 20.0 0.00 0.00 0.00 49 1011.9
20260503185816 56 238 13.0 20.0 0.00 0.00 0.00 45 1012.0
20260503185339 56 248 11.3 20.9 0.00 0.00 0.00 46 1012.0
20260503184852 56 274 12.2 20.9 0.00 0.00 0.00 46 1012.1
20260503184336 56 257 12.2 23.5 0.00 0.00 0.00 46 1012.1
20260503183849 56 265 12.2 23.5 0.00 0.00 0.00 47 1012.2
20260503183331 56 275 12.2 21.7 0.00 0.00 0.00 48 1012.2
20260503182820 56 236 12.2 21.7 0.00 0.00 0.00 48 1012.2
20260503182324 56 258 10.4 19.1 0.00 0.00 0.00 48 1012.3
20260503181823 56 268 10.4 18.2 0.00 0.00 0.00 49 1012.3
20260503181326 56 245 8.7 16.5 0.00 0.00 0.00 53 1012.3
20260503180816 55 267 8.7 17.4 0.00 0.00 0.00 55 1012.4
20260503180338 55 252 8.7 17.4 0.00 0.00 0.00 54 1012.4
20260503175831 55 248 8.7 15.6 0.00 0.00 0.00 52 1012.6
20260503175315 55 278 9.6 18.2 0.00 0.00 0.00 52 1012.6
20260503174834 55 240 10.4 17.4 0.00 0.00 0.00 52 1012.6
20260503174316 55 250 7.8 19.1 0.00 0.00 0.00 52 1012.6
20260503173836 55 279 10.4 20.9 0.00 0.00 0.00 50 1012.7
20260503173320 55 267 12.2 20.9 0.00 0.00 0.00 48 1012.6
20260503172818 55 265 10.4 20.9 0.00 0.00 0.00 45 1012.6
20260503172338 55 232 8.7 17.4 0.00 0.00 0.00 46 1012.7
20260503171830 56 262 11.3 20.9 0.00 0.00 0.00 42 1012.7
20260503171332 57 257 10.4 20.9 0.00 0.00 0.00 41 1012.8
20260503170825 57 281 9.6 16.5 0.00 0.00 0.00 40 1012.7
20260503170328 58 209 9.6 16.5 0.00 0.00 0.00 41 1012.8
20260503150816 51 259 9.6 15.6 0.00 0.00 0.00 43 1014.4
20260503150319 51 296 7.0 13.0 0.00 0.00 0.00 50 1014.4
20260503131320 47 298 8.7 14.8 0.00 0.00 0.00 65 1014.9
20260503130839 47 226 7.8 17.4 0.00 0.00 0.00 66 1014.9
20260503130316 47 232 8.7 15.6 0.00 0.00 0.00 66 1014.9
20260503110826 40 231 2.6 8.7 0.00 0.00 0.00 79 1014.5
20260503110331 39 216 1.7 7.0 0.00 0.00 0.00 79 1014.5
20260503090320 38 200 0.9 5.2 0.00 0.00 0.00 77 1014.5
20260503081320 37 184 0.9 3.5 0.00 0.00 0.00 79 1014.7
20260503080815 38 188 0.9 2.6 0.00 0.00 0.00 79 1014.7
20260503080319 37 188 0.9 3.5 0.00 0.00 0.00 79 1014.8
20260503072832 38 191 0.9 3.5 0.00 0.00 0.00 78 1014.7
20260503072316 37 208 1.7 3.5 0.00 0.00 0.00 78 1014.7
20260503071835 37 206 1.7 3.5 0.00 0.00 0.00 78 1014.8
20260503071338 37 203 0.9 4.3 0.00 0.00 0.00 78 1014.8
20260503070831 37 204 0.9 4.3 0.00 0.00 0.00 78 1014.8
20260503070335 37 180 1.7 4.3 0.00 0.00 0.00 78 1014.7
20260503060334 38 190 0.9 2.6 0.00 0.00 0.00 78 1015.1
20260503054840 38 191 1.7 4.3 0.00 0.00 0.00 77 1015.2
20260503054320 38 180 1.7 5.2 0.00 0.00 0.00 77 1015.2
20260503053818 38 198 1.7 5.2 0.00 0.00 0.00 78 1015.2
20260503053339 38 195 0.9 4.3 0.00 0.00 0.00 78 1015.2
20260503052831 38 191 1.7 3.5 0.00 0.00 0.00 77 1015.2
20260503052314 39 190 0.0 3.5 0.00 0.00 0.00 77 1015.3
20260503051855 39 193 1.7 3.5 0.00 0.00 0.00 76 1015.3
20260503051316 39 232 0.0 1.7 0.00 0.00 0.00 75 1015.3
20260503050814 40 232 0.0 2.6 0.00 0.00 0.00 74 1015.3
20260503050318 41 232 0.0 3.5 0.00 0.00 0.00 74 1015.3
20260503045831 41 242 0.0 7.8 0.00 0.00 0.00 74 1015.3
20260503045314 41 249 2.6 7.8 0.00 0.00 0.00 74 1015.4
20260503044815 41 232 3.5 9.6 0.00 0.00 0.00 74 1015.3
20260503044339 41 257 4.3 12.2 0.00 0.00 0.00 73 1015.4
20260503043830 41 246 6.1 12.2 0.00 0.00 0.00 73 1015.4
20260503043334 41 259 4.3 13.0 0.00 0.00 0.00 74 1015.4
20260503042827 41 252 6.1 13.0 0.00 0.00 0.00 74 1015.4
20260503042324 41 235 3.5 13.0 0.00 0.00 0.00 74 1015.5
20260503041823 41 234 7.0 13.0 0.00 0.00 0.00 74 1015.5
20260503041326 41 271 5.2 10.4 0.00 0.00 0.00 75 1015.5
20260503040825 41 238 4.3 10.4 0.00 0.00 0.00 74 1015.5
20260503040329 41 254 5.2 10.4 0.00 0.00 0.00 74 1015.5
20260503035833 41 244 3.5 10.4 0.00 0.00 0.00 74 1015.5
20260503035317 41 248 5.2 13.0 0.00 0.00 0.00 75 1015.5
20260503034815 41 238 7.0 13.0 0.00 0.00 0.00 75 1015.6
20260503034318 41 239 4.3 8.7 0.00 0.00 0.00 75 1015.6
20260503033839 41 255 3.5 7.8 0.00 0.00 0.00 75 1015.6
20260503033321 41 263 4.3 13.0 0.00 0.00 0.00 74 1015.6
20260503032819 41 237 5.2 13.0 0.00 0.00 0.00 74 1015.6
20260503032321 41 248 3.5 9.6 0.00 0.00 0.00 75 1015.7
20260503031816 42 244 3.5 8.7 0.00 0.00 0.00 74 1015.7
20260503031340 42 281 4.3 9.6 0.00 0.00 0.00 74 1015.7
20260503030831 42 237 3.5 8.7 0.00 0.00 0.00 74 1015.7
20260503030336 42 248 3.5 8.7 0.00 0.00 0.00 74 1015.8
20260503025830 42 254 2.6 8.7 0.00 0.00 0.00 73 1015.8
20260503025315 42 225 5.2 8.7 0.00 0.00 0.00 73 1015.8
20260503024815 42 218 3.5 10.4 0.00 0.00 0.00 73 1015.8
20260503024319 42 270 5.2 10.4 0.00 0.00 0.00 73 1015.9
20260503023838 42 236 3.5 8.7 0.00 0.00 0.00 74 1015.8
20260503023322 42 246 3.5 8.7 0.00 0.00 0.00 73 1015.9
20260503022834 42 216 2.6 7.8 0.00 0.00 0.00 73 1016.0
20260503022359 42 262 2.6 7.8 0.00 0.00 0.00 74 1016.0
20260503021856 42 240 3.5 7.8 0.00 0.00 0.00 73 1016.0
20260503021316 42 236 2.6 4.3 0.00 0.00 0.00 74 1016.1
20260503020816 42 242 1.7 6.1 0.00 0.00 0.00 74 1016.1
20260503020339 42 243 1.7 6.1 0.00 0.00 0.00 73 1016.0
20260503015852 42 210 0.9 9.6 0.00 0.00 0.00 73 1016.0
20260503015335 42 270 3.5 9.6 0.00 0.00 0.00 73 1015.9
20260503014825 42 248 1.7 7.8 0.00 0.00 0.00 73 1015.9
20260503014325 42 234 2.6 4.3 0.00 0.00 0.00 73 1015.9
20260503013819 42 228 1.7 4.3 0.00 0.00 0.00 73 1016.0
20260503013341 42 266 2.6 7.0 0.00 0.00 0.00 73 1016.0
20260503012817 42 246 2.6 7.0 0.00 0.00 0.00 72 1016.0
20260503012318 42 246 3.5 7.8 0.00 0.00 0.00 72 1016.0
20260503011836 42 262 4.3 7.8 0.00 0.00 0.00 72 1016.0
20260503011321 42 275 2.6 7.8 0.00 0.00 0.00 72 1016.0
20260503010832 42 241 2.6 8.7 0.00 0.00 0.00 72 1016.0
20260503010315 42 246 3.5 8.7 0.00 0.00 0.00 71 1015.9
20260503005833 42 259 4.3 8.7 0.00 0.00 0.00 71 1015.9
20260503005339 42 245 3.5 7.8 0.00 0.00 0.00 70 1015.9
20260503004853 42 257 3.5 7.8 0.00 0.00 0.00 69 1015.9
20260503004316 42 244 4.3 8.7 0.00 0.00 0.00 69 1015.9
20260503003833 42 239 4.3 8.7 0.00 0.00 0.00 69 1015.8
20260503003317 42 247 4.3 7.8 0.00 0.00 0.00 69 1015.8
20260503002815 42 243 2.6 7.8 0.00 0.00 0.00 69 1015.8
20260503002338 42 244 4.3 8.7 0.00 0.00 0.00 69 1015.8